Вернуться в каталог

SKYMED 2

АктивенНаукаSSO
NORAD 32376·PAYLOAD·🇮🇹 Italy

Запущен Dec 9, 2007 с Vandenberg Space Force Base

Loading…

Ближайшие Пролёты (ближайшие 24 часа)

TLE

СвежийSource: Space-Track

Эпоха: Sep 14, 2026, 14:42 UTC

1 32376U 07059A   26257.61253469  .00000269  00000-0  40306-4 0  9994
2 32376  97.8916  79.9360 0001333  90.0462 270.0904 14.82149394 15258

Отслеживайте SKYMED 2 в реальном времени с AllMySat

Download on the App Store